SES-10 (42432 NORAD) Tracking and Keplerian Element Data

This shows tracking and keplerian element data for the satellite.

Feedback or suggestion? Click here.




ElementValue
Catalog42432
NameSES-10
Epoch Orbit2631
Epoch Day159.48061753
Epoch Year2024
RAAN40.1949
Inclination0.0241
Eccentricity0.0002284
Argument of Perigee36.0033
Mean Anonmoly286.2719
Mean Motion1.00272505
Decay Rate-2.73E-06
L11 42432U 17017A 24159.48061753 -.00000273 00000+0 00000+0 0 9997
L22 42432 0.0241 40.1949 0002284 36.0033 286.2719 1.00272505 26311



Live tracking and technical data element details for SES-10 (NORAD 42432). SES-10 can be tracked NOW for your location showing map with azimuth and elevation plus other details from your city location.







IsCatalogInMostPopularTable: catalog: 42432, numindb: 684
Update: records affected: 1



GetName: 42432 SES-10

Hit Count: updated at: Sun, 23 Jun 2024 02:11:36 GMT